Location: *
(57.8420°S, 159.8600°W)
Time: 12:42:20
(UTC+00:00)

Meteor PRIRODA - Pass Details

Date: 18 May 2021
Orbit: 490 x 508 km, 97.6° (Epoch: 22 June)

Event Time Altitude Azimuth Distance (km) Brightness Sun altitude
Exits shadow 03:52:39 - 153° (SSE) 1,928 6.2 -10.9°
Reaches altitude 10° 03:53:04 10° 151° (SSE) 1,773 6.0 -11.0°
Maximum altitude 03:56:36 35° 83° (E) 864 4.3 -11.4°
Drops below altitude 10° 04:00:04 10° 16° (NNE) 1,744 6.4 -11.9°
Sets 04:02:16 0° 7° (N) 2,619 7.4 -12.2°
